星链-11147 (STARLINK-11147)

导读 | 豆包AI

STARLINK-11147是美国SpaceX星链计划中的卫星,于2024年7月28日发射升空,作为星链星座的组成部分,它承担着为全球范围提供高速互联网接入服务的任务,尤其服务于偏远地区、海洋、航空等传统网络覆盖薄弱场景,进一步扩充了星链星座的规模与服务能力。

Basic Information
目录编号:
60301
目录名称:
STARLINK-11147
国际标识:
2024-133A
轨道中心:
EARTH
卫星名称:
星链-11147 (STARLINK-11147)
卫星全名:
星链-11147 (STARLINK-11147)
卫星状态:
在轨 (已飞行666 天)
发射日期:
2024-07-28 UTC
国别 :
美国 (US)
星等 :
--
Orbit Information
数据来源 国际轨道数据
星历时间: 2026-05-25T10:36:39+0800
8小时前
查看轨道信息
半长轴: 6737.904km
偏心率: 0.0001116
轨道倾角: 53.160°
近地点辐角 99.271°
升交点赤经 129.721°
平近点角 260.844°
近地点: 359.015km
远地点: 360.519km
周期: 91.738分钟
每日圈数: 15.69696
Detailed Information
卫星平台:
Starlink v2.0 mini
运营商:
太空探索技术公司
运营商所在国:
美国
制造商(研发单位):
太空探索技术公司
制造商所在国:
美国
使用方式:
暂无
Satellite Introduction
星链(Starlink)计划是由太空探索技术公司(SpaceX)提出的一个巨型低轨卫星互联网星座项目,计划在2019年至2024年间在太空搭建由约1.2万颗卫星组成的“星链”网络,其中1584颗将部署在地球上空550千米处的近地轨道,并从2020年开始工作。该卫星仍在工作。
2D Orbit Map
3D Orbit Map
Orbit Altitude Analysis Chart
Orbit Inclination Analysis Chart
Orbit Comprehensive Analysis Chart
View Comprehensive Chart